When you browse on this site, cookies collect data to enhance your experience and personalize the content and advertising you see.
Visit our Privacy Policy to learn more. By continuing to use the site, you agree to this use of cookies and data.
  • In Hungary
  • List of Countries
  • For 7 days
  • Water Temperature
  • Satellite Maps
  • Weather Map
  • News
  • Weather Widgets
  • user-avatar
    Login

    Hourly Weather Gurzuf

    Today, 20 January, Sunday

    Time Temperature Precipitation Wind Pressure Humidity
    00:00 -3°C° 0 mm 2 mps 704 mmHg 91%
    01:00 -4°C° 0 mm 2 mps 704 mmHg 90%
    02:00 -4°C° 0 mm 2 mps 704 mmHg 89%
    03:00 -4°C° 0 mm 2 mps 704 mmHg 89%
    04:00 -4°C° 0 mm 2 mps 704 mmHg 88%
    05:00 -4°C° 0 mm 2 mps 703 mmHg 88%
    06:00 -4°C° 0 mm 2 mps 703 mmHg 87%
    07:00 -3°C° 0 mm 2 mps 703 mmHg 86%
    08:00 -4°C° 0 mm 3 mps 703 mmHg 86%
    09:00 -2°C° 0 mm 3 mps 703 mmHg 85%
    10:00 -2°C° 0 mm 3 mps 703 mmHg 83%
    11:00 -1°C° 0 mm 3 mps 703 mmHg 82%
    12:00 -1°C° 0 mm 2 mps 703 mmHg 82%
    13:00 -1°C° 0 mm 2 mps 703 mmHg 82%
    14:00 +1°C° 0 mm 2 mps 702 mmHg 82%
    15:00 -1°C° 0 mm 2 mps 702 mmHg 85%
    16:00 -2°C° 0 mm 2 mps 702 mmHg 89%
    17:00 -3°C° 0 mm 2 mps 701 mmHg 92%
    18:00 -2°C° 0 mm 2 mps 701 mmHg 91%
    19:00 -2°C° 0 mm 2 mps 701 mmHg 91%
    20:00 -2°C° 0 mm 2 mps 701 mmHg 90%
    21:00 -2°C° 0.1 mm 2 mps 700 mmHg 91%
    22:00 -1°C° 0.1 mm 2 mps 700 mmHg 91%
    23:00 -1°C° 0.1 mm 2 mps 700 mmHg 92%

    Tomorrow, 21 January, Monday

    Time Temperature Precipitation Wind Pressure Humidity
    00:00 -1°C° 0.1 mm 2 mps 700 mmHg 92%
    01:00 -1°C° 0.1 mm 2 mps 699 mmHg 92%
    02:00 +1°C° 0.1 mm 2 mps 699 mmHg 93%
    03:00 +1°C° 0.2 mm 2 mps 699 mmHg 92%
    04:00 +1°C° 0.2 mm 2 mps 698 mmHg 92%
    05:00 +1°C° 0.2 mm 2 mps 698 mmHg 92%
    06:00 +1°C° 0.6 mm 2 mps 698 mmHg 93%
    07:00 +2°C° 0.6 mm 1 mps 698 mmHg 93%
    08:00 +2°C° 0.6 mm 1 mps 697 mmHg 94%
    09:00 +2°C° 0.2 mm 2 mps 697 mmHg 94%
    10:00 +3°C° 0.2 mm 2 mps 698 mmHg 93%
    11:00 +3°C° 0.2 mm 3 mps 698 mmHg 93%
    12:00 +1°C° 0.5 mm 4 mps 698 mmHg 94%
    13:00 +1°C° 0.5 mm 4 mps 697 mmHg 95%
    14:00 0°C° 0.5 mm 4 mps 697 mmHg 96%
    15:00 0°C° 0 mm 4 mps 698 mmHg 96%
    16:00 -1°C° 0 mm 4 mps 698 mmHg 96%
    17:00 -1°C° 0 mm 4 mps 698 mmHg 95%
    18:00 -2°C° 0 mm 4 mps 699 mmHg 95%
    19:00 -2°C° 0 mm 4 mps 699 mmHg 94%
    20:00 -2°C° 0 mm 3 mps 700 mmHg 94%
    21:00 -4°C° 0 mm 3 mps 700 mmHg 93%
    22:00 -4°C° 0 mm 3 mps 700 mmHg 93%
    23:00 -5°C° 0 mm 3 mps 701 mmHg 92%

    Day after tomorrow, 22 January, Tuesday

    Time Temperature Precipitation Wind Pressure Humidity
    00:00 -5°C° 0 mm 3 mps 701 mmHg 92%
    01:00 -6°C° 0 mm 3 mps 701 mmHg 91%
    02:00 -6°C° 0 mm 3 mps 702 mmHg 90%
    03:00 -5°C° 0 mm 2 mps 702 mmHg 90%
    04:00 -6°C° 0 mm 2 mps 702 mmHg 90%
    05:00 -6°C° 0 mm 2 mps 702 mmHg 89%
    06:00 -6°C° 0 mm 2 mps 702 mmHg 88%
    07:00 -6°C° 0 mm 2 mps 702 mmHg 86%
    08:00 -6°C° 0 mm 2 mps 703 mmHg 84%
    09:00 -5°C° 0 mm 2 mps 703 mmHg 81%
    10:00 -4°C° 0 mm 2 mps 703 mmHg 78%
    11:00 -3°C° 0 mm 2 mps 703 mmHg 75%
    12:00 -3°C° 0 mm 2 mps 703 mmHg 76%
    13:00 -3°C° 0 mm 2 mps 702 mmHg 76%
    14:00 -2°C° 0 mm 2 mps 702 mmHg 77%
    15:00 -3°C° 0 mm 2 mps 702 mmHg 79%
    16:00 -5°C° 0 mm 3 mps 702 mmHg 82%
    17:00 -5°C° 0 mm 3 mps 702 mmHg 85%
    18:00 -5°C° 0 mm 3 mps 702 mmHg 84%
    19:00 -5°C° 0 mm 3 mps 701 mmHg 83%
    20:00 -5°C° 0 mm 4 mps 701 mmHg 83%
    21:00 -5°C° 0 mm 4 mps 701 mmHg 83%
    22:00 -7°C° 0 mm 4 mps 701 mmHg 82%
    23:00 -7°C° 0 mm 4 mps 701 mmHg 82%

    23 January, Wednesday

    Time Temperature Precipitation Wind Pressure Humidity
    00:00 -7°C° 0 mm 4 mps 700 mmHg 82%
    01:00 -6°C° 0 mm 3 mps 700 mmHg 81%
    02:00 -6°C° 0 mm 3 mps 700 mmHg 81%
    03:00 -5°C° 0 mm 4 mps 700 mmHg 81%
    04:00 -5°C° 0 mm 4 mps 699 mmHg 81%
    05:00 -5°C° 0 mm 4 mps 699 mmHg 81%
    06:00 -5°C° 0 mm 4 mps 699 mmHg 83%
    07:00 -5°C° 0 mm 4 mps 699 mmHg 85%
    08:00 -4°C° 0 mm 4 mps 699 mmHg 88%
    09:00 -3°C° 0.1 mm 4 mps 699 mmHg 88%
    10:00 -3°C° 0.1 mm 4 mps 699 mmHg 87%
    11:00 -2°C° 0.1 mm 4 mps 699 mmHg 87%
    12:00 -1°C° 0.1 mm 4 mps 699 mmHg 88%
    13:00 -1°C° 0.1 mm 4 mps 698 mmHg 88%
    14:00 -1°C° 0.1 mm 4 mps 698 mmHg 88%
    15:00 -1°C° 0.1 mm 4 mps 698 mmHg 90%
    16:00 -1°C° 0.1 mm 4 mps 698 mmHg 92%
    17:00 -1°C° 0.1 mm 4 mps 698 mmHg 94%
    18:00 -1°C° 0.2 mm 4 mps 698 mmHg 94%
    19:00 -1°C° 0.2 mm 4 mps 698 mmHg 93%
    20:00 -1°C° 0.2 mm 4 mps 698 mmHg 93%
    21:00 -1°C° 0.2 mm 4 mps 698 mmHg 93%
    22:00 0°C° 0.2 mm 4 mps 698 mmHg 93%
    23:00 0°C° 0.2 mm 4 mps 698 mmHg 93%

    24 January, Thursday

    Time Temperature Precipitation Wind Pressure Humidity
    00:00 +1°C° 0 mm 3 mps 698 mmHg 91%
    01:00 0°C° 0 mm 3 mps 697 mmHg 90%
    02:00 0°C° 0 mm 3 mps 697 mmHg 89%
    03:00 +1°C° 0 mm 3 mps 697 mmHg 88%
    04:00 +1°C° 0 mm 3 mps 697 mmHg 88%
    05:00 +1°C° 0 mm 3 mps 697 mmHg 87%
    06:00 +1°C° 0.1 mm 3 mps 697 mmHg 88%
    07:00 +1°C° 0.1 mm 3 mps 697 mmHg 88%
    08:00 +1°C° 0.1 mm 3 mps 697 mmHg 88%
    09:00 +2°C° 0.1 mm 3 mps 697 mmHg 87%
    10:00 +2°C° 0.1 mm 3 mps 697 mmHg 85%
    11:00 +3°C° 0.1 mm 4 mps 697 mmHg 83%
    12:00 +3°C° 0 mm 4 mps 696 mmHg 82%
    13:00 +4°C° 0 mm 4 mps 695 mmHg 81%
    14:00 +4°C° 0 mm 4 mps 695 mmHg 80%
    15:00 +3°C° 0 mm 4 mps 694 mmHg 81%
    16:00 +1°C° 0 mm 5 mps 694 mmHg 82%
    17:00 +1°C° 0 mm 5 mps 693 mmHg 84%
    18:00 +1°C° 0 mm 5 mps 693 mmHg 83%
    19:00 +1°C° 0 mm 5 mps 693 mmHg 83%
    20:00 +1°C° 0 mm 5 mps 693 mmHg 82%
    21:00 +1°C° 0 mm 5 mps 692 mmHg 82%
    22:00 +1°C° 0 mm 6 mps 692 mmHg 81%
    23:00 +1°C° 0 mm 6 mps 692 mmHg 80%

    25 January, Friday

    Time Temperature Precipitation Wind Pressure Humidity
    00:00 +1°C° 0 mm 6 mps 691 mmHg 81%
    01:00 +1°C° 0 mm 5 mps 691 mmHg 82%
    02:00 0°C° 0 mm 5 mps 690 mmHg 83%
    03:00 0°C° 0 mm 5 mps 690 mmHg 84%
    04:00 0°C° 0 mm 4 mps 690 mmHg 86%
    05:00 0°C° 0 mm 4 mps 690 mmHg 87%
    06:00 +1°C° 0.1 mm 3 mps 690 mmHg 89%
    07:00 +2°C° 0.1 mm 3 mps 690 mmHg 91%
    08:00 +2°C° 0.1 mm 3 mps 690 mmHg 93%
    09:00 +2°C° 0.4 mm 3 mps 691 mmHg 94%
    10:00 +2°C° 0.4 mm 3 mps 691 mmHg 94%
    11:00 +2°C° 0.4 mm 3 mps 691 mmHg 94%
    12:00 +3°C° 0.4 mm 2 mps 691 mmHg 94%
    13:00 +4°C° 0.4 mm 2 mps 690 mmHg 94%
    14:00 +5°C° 0.4 mm 1 mps 690 mmHg 93%
    15:00 +4°C° 0.1 mm 1 mps 690 mmHg 94%
    16:00 +4°C° 0.1 mm 1 mps 690 mmHg 94%
    17:00 +4°C° 0.1 mm 1 mps 690 mmHg 95%
    18:00 +4°C° 0 mm 1 mps 690 mmHg 95%
    19:00 +4°C° 0 mm 1 mps 690 mmHg 94%
    20:00 +4°C° 0 mm 1 mps 690 mmHg 94%
    21:00 +4°C° 0 mm 1 mps 690 mmHg 93%
    22:00 +3°C° 0 mm 2 mps 690 mmHg 92%
    23:00 +3°C° 0 mm 2 mps 690 mmHg 91%
    Show more